Regional Weather Roundup
Issued by NWS Cleveland, OH

Home | Current Version | Previous Version | Graphics & Text | Print | Product List | Glossary On
Versions: 1 2 3 4 5 6 7 8 9 10 11 12 13 14 15 16 17 18 19 20 21 22 23 24 25 26 27 28 29 30 31 32 33 34 35 36 37 38 39 40 41 42 43 44 45 46 47 48 49 50
000
ASUS41 KCLE 200110
RWRCLE
OHIO REGIONAL WEATHER ROUNDUP
NATIONAL WEATHER SERVICE CLEVELAND, OH
900 PM EDT SAT APR 19 2014

NOTE: "FAIR" INDICATES FEW OR NO CLOUDS BELOW 12,000 FEET WITH NO
SIGNIFICANT WEATHER AND/OR OBSTRUCTIONS TO VISIBILITY.

OHZ001>008-015>018-024>027-034-035-043-044-200200-
   NORTHWEST OHIO

CITY           SKY/WX    TMP DP  RH WIND       PRES   REMARKS
DEFIANCE       CLEAR     48  24  39 E5        30.35R
FINDLAY        CLEAR     48  27  44 NE12      30.31S
TOLEDO EXPRESS CLEAR     44  28  53 E7        30.35S
TOLEDO EXEC    CLEAR     45  29  53 E6        30.36S
LIMA           CLEAR     48  25  40 NE7       30.30S
$$

OHZ009>014-019>023-028>033-038-089-200200-
   NORTHEAST OHIO

CITY           SKY/WX    TMP DP  RH WIND       PRES   REMARKS
CLE-HOPKINS    CLEAR     45  32  60 NE7       30.35S
CLE-LAKEFRONT  CLEAR     44  36  73 NE7       30.33S
CUY CO. ARPT   PTCLDY    43  28  56 E9        30.34S
LORAIN-ELYRIA  CLEAR     46  26  45 NE9       30.33S
ASHTABULA      CLEAR     43  26  51 NE6       30.35S
AKRON-CANTON   PTCLDY    53  24  32 NE7       30.30S
WOOSTER        PTCLDY    44  34  67 N7        30.31S
MANSFIELD      CLEAR     46  28  49 N7        30.31R
YOUNGSTOWN     MOCLDY    47  29  49 N6        30.32R
$$

OHZ042-051>053-060>062-070>072-077>081-200200-
  SOUTHWEST OHIO

CITY           SKY/WX    TMP DP  RH WIND       PRES   REMARKS
CINC-COVINGTON PTCLDY    62  33  33 NE8       30.24R
CINC-LUNKEN    CLEAR     57  36  45 NE6       30.25R
HAMILTON       CLEAR     58  36  43 NE6       30.26R
DAYTON         PTCLDY    53  34  48 NE7       30.28R
WRIGHT-PAT AFB CLEAR     55  35  47 N7        30.27R
DAYTON GENERAL CLEAR     56  35  45 NE7       30.25R
WILMINGTON     CLEAR     52  35  52 NE8       30.26R
$$

OHZ036-037-039>041-045>050-054>059-063>069-073>076-082>088-200200-
  CENTRAL AND SOUTHEAST OHIO

CITY           SKY/WX    TMP DP  RH WIND       PRES   REMARKS
COLUMBUS       PTCLDY    59  27  29 NE5       30.27R
OSU AIRPORT    PTCLDY    55  27  34 NE6       30.28R
BOLTON FIELD   PTCLDY    55  32  42 NE5       30.27R
RICKENBACK AFB PTCLDY    56  26  31 NE8       30.26R
NEWARK         MOCLDY    58  22  24 NE3       30.27R
MARION         CLEAR     45  32  60 N10       30.31R
LANCASTER      MOCLDY    52  35  52 NE7       30.27R
ZANESVILLE     MOCLDY    57  21  24 NE6       30.27R
NEW PHILLY     MOCLDY    55  26  32 N5        30.30R
$$



USA.gov is the U.S. government's official web portal to all federal, state and local government web resources and services.